Location: LDNL
(36.4545°S, 141.6685°E)
Time: 14:17:29
(UTC+11:00)

Courier 1B Rocket - Pass Details

Date: 03 February 2023
Orbit: 920 x 1202 km, 28.2° (Epoch: 25 March)

Event Time Altitude Azimuth Distance (km) Brightness Sun altitude
Rises 09:59:41 0° 274° (W) 4,103 7.8 36.3°
Reaches altitude 10° 10:02:48 10° 282° (WNW) 3,125 7.3 36.9°
Maximum altitude 10:09:47 37° 345° (NNW) 1,736 6.6 38.3°
Drops below altitude 10° 10:16:26 10° 49° (NE) 2,979 8.4 39.6°
Sets 10:19:21 0° 57° (ENE) 3,892 8.9 40.2°
